�������l�o���
Date,Time,MP-1(��Sv/h),MP-2(��Sv/h),MP-3(��Sv/h),MP-4(��Sv/h),MP-5(��Sv/h),MP-6(��Sv/h),MP-7(��Sv/h),MP-8(��Sv/h),����,����(m/s),���J
2016/12/15,00:00,1.071,1.785,1.165,2.020,1.375,0.561,1.023,0.953,��,3.2,��
2016/12/15,00:10,1.072,1.783,1.167,2.021,1.374,0.563,1.024,0.951,��,4.9,��
2016/12/15,00:20,1.071,1.786,1.164,2.023,1.373,0.563,1.024,0.952,��,3.5,��
2016/12/15,00:30,1.072,1.784,1.164,2.022,1.379,0.562,1.023,0.951,�k��,2.3,��
2016/12/15,00:40,1.071,1.785,1.162,2.024,1.373,0.562,1.025,0.952,��,2.3,��
2016/12/15,00:50,1.072,1.785,1.163,2.023,1.376,0.562,1.025,0.950,���쐼,3.4,��
2016/12/15,01:00,1.071,1.786,1.162,2.022,1.374,0.561,1.025,0.951,���쐼,4.4,��
2016/12/15,01:10,1.070,1.783,1.165,2.023,1.377,0.560,1.024,0.953,���쐼,4.0,��
2016/12/15,01:20,1.071,1.786,1.163,2.022,1.376,0.561,1.023,0.953,�쐼,4.6,��
2016/12/15,01:30,1.072,1.783,1.162,2.022,1.376,0.564,1.023,0.952,�쐼,5.6,��
2016/12/15,01:40,1.072,1.786,1.161,2.021,1.377,0.561,1.023,0.952,��,7.3,��
2016/12/15,01:50,1.071,1.785,1.162,2.026,1.372,0.563,1.025,0.949,��,5.0,��
2016/12/15,02:00,1.069,1.785,1.163,2.025,1.374,0.562,1.023,0.952,��,6.1,��
2016/12/15,02:10,1.072,1.785,1.165,2.024,1.376,0.563,1.024,0.951,��,7.1,��
2016/12/15,02:20,1.069,1.786,1.165,2.022,1.375,0.564,1.024,0.953,��,6.6,��
2016/12/15,02:30,1.070,1.786,1.164,2.023,1.376,0.562,1.024,0.952,��,7.7,��
2016/12/15,02:40,1.072,1.787,1.164,2.024,1.376,0.562,1.027,0.953,��,6.2,��
2016/12/15,02:50,1.069,1.786,1.163,2.024,1.377,0.563,1.027,0.951,��,5.7,��
2016/12/15,03:00,1.070,1.787,1.165,2.023,1.376,0.562,1.024,0.952,���쐼,5.2,��
2016/12/15,03:10,1.070,1.786,1.164,2.028,1.377,0.562,1.025,0.952,���쐼,5.6,��
2016/12/15,03:20,1.071,1.788,1.163,2.025,1.380,0.564,1.026,0.953,���쐼,5.7,��
2016/12/15,03:30,1.071,1.784,1.166,2.026,1.377,0.563,1.025,0.952,���쐼,4.8,��
2016/12/15,03:40,1.070,1.786,1.162,2.024,1.378,0.563,1.025,0.951,��,3.1,��
2016/12/15,03:50,1.071,1.782,1.162,2.025,1.376,0.563,1.025,0.953,�k�k��,1.2,��
2016/12/15,04:00,1.071,1.784,1.160,2.025,1.375,0.563,1.024,0.952,�k,1.2,��
2016/12/15,04:10,1.070,1.787,1.164,2.023,1.377,0.564,1.024,0.953,-,CALM,��
2016/12/15,04:20,1.070,1.784,1.159,2.026,1.376,0.562,1.023,0.952,��쓌,0.6,��
2016/12/15,04:30,1.067,1.783,1.161,2.024,1.376,0.563,1.024,0.951,-,CALM,��
2016/12/15,04:40,1.069,1.786,1.163,2.025,1.376,0.563,1.023,0.953,���k��,1.2,��
2016/12/15,04:50,1.069,1.783,1.162,2.026,1.376,0.563,1.024,0.952,���쐼,2.0,��
2016/12/15,05:00,1.068,1.785,1.159,2.024,1.374,0.561,1.024,0.951,�쐼,2.2,��
2016/12/15,05:10,1.070,1.785,1.159,2.020,1.376,0.561,1.024,0.952,�쐼,1.7,��
2016/12/15,05:20,1.068,1.784,1.160,2.022,1.375,0.561,1.023,0.952,�쐼,2.5,��
2016/12/15,05:30,1.067,1.784,1.162,2.027,1.373,0.561,1.022,0.950,���쐼,3.0,��
2016/12/15,05:40,1.066,1.781,1.160,2.028,1.374,0.561,1.023,0.950,���쐼,3.5,��
2016/12/15,05:50,1.068,1.783,1.162,2.022,1.375,0.561,1.022,0.952,�쐼,3.8,��
2016/12/15,06:00,1.068,1.783,1.160,2.022,1.375,0.560,1.025,0.951,���쐼,3.8,��
2016/12/15,06:10,1.066,1.782,1.159,2.024,1.372,0.561,1.023,0.949,���쐼,3.3,��
2016/12/15,06:20,1.066,1.783,1.159,2.022,1.375,0.561,1.022,0.951,�쐼,4.1,��
2016/12/15,06:30,1.068,1.782,1.161,2.023,1.375,0.561,1.022,0.951,���쐼,4.6,��
2016/12/15,06:40,1.066,1.783,1.163,2.023,1.374,0.558,1.023,0.951,���쐼,4.7,��
2016/12/15,06:50,1.065,1.785,1.162,2.023,1.374,0.560,1.021,0.952,���쐼,4.2,��
2016/12/15,07:00,1.063,1.784,1.160,2.024,1.373,0.561,1.024,0.951,��,3.8,��
2016/12/15,07:10,1.064,1.781,1.159,2.021,1.372,0.560,1.024,0.952,��,3.6,��
2016/12/15,07:20,1.067,1.786,1.164,2.021,1.373,0.561,1.021,0.950,��,3.2,��
2016/12/15,07:30,1.064,1.783,1.159,2.023,1.375,0.561,1.024,0.951,��,2.5,��
2016/12/15,07:40,1.067,1.785,1.155,2.026,1.373,0.561,1.022,0.949,��,2.5,��
2016/12/15,07:50,1.066,1.787,1.159,2.022,1.373,0.561,1.023,0.952,��,2.3,��
2016/12/15,08:00,1.067,1.785,1.161,2.022,1.374,0.559,1.025,0.953,���쐼,3.1,��
2016/12/15,08:10,1.067,1.781,1.160,2.026,1.373,0.561,1.024,0.954,���쐼,2.3,��
2016/12/15,08:20,1.067,1.783,1.164,2.028,1.373,0.559,1.025,0.953,��,4.2,��
2016/12/15,08:30,1.069,1.785,1.162,2.026,1.375,0.560,1.023,0.951,��,4.2,��
2016/12/15,08:40,1.066,1.783,1.161,2.028,1.377,0.561,1.024,0.952,���쐼,3.8,��
2016/12/15,08:50,1.067,1.784,1.160,2.026,1.376,0.562,1.023,0.953,���쐼,2.6,��
2016/12/15,09:00,1.067,1.786,1.163,2.027,1.376,0.562,1.024,0.952,��,2.6,��
2016/12/15,09:10,1.068,1.788,1.165,2.027,1.375,0.561,1.024,0.952,��,2.8,��
2016/12/15,09:20,1.066,1.788,1.166,2.029,1.378,0.561,1.027,0.951,��,2.0,��
2016/12/15,09:30,1.067,1.789,1.165,2.027,1.379,0.560,1.026,0.951,��,1.2,��
2016/12/15,09:40,1.066,1.787,1.163,2.028,1.380,0.560,1.026,0.953,��,0.9,��
2016/12/15,09:50,1.067,1.788,1.161,2.026,1.379,0.562,1.025,0.954,���쓌,2.0,��
2016/12/15,10:00,1.068,1.788,1.165,2.029,1.381,0.561,1.026,0.951,��,1.7,��
2016/12/15,10:10,1.067,1.787,1.163,2.028,1.381,0.562,1.023,0.953,�k��,2.3,��
2016/12/15,10:20,1.068,1.789,1.166,2.029,1.381,0.562,1.023,0.954,��,1.5,��
2016/12/15,10:30,1.069,1.789,1.168,2.029,1.382,0.562,1.024,0.953,���k��,0.9,��
2016/12/15,10:40,1.071,1.794,1.169,2.028,1.382,0.563,1.025,0.954,-,CALM,��
2016/12/15,10:50,1.068,1.791,1.168,2.032,1.385,0.563,1.026,0.954,�k,3.6,��
2016/12/15,11:00,1.069,1.791,1.170,2.031,1.385,0.564,1.025,0.952,�k,2.6,��
2016/12/15,11:10,1.072,1.795,1.171,2.031,1.384,0.563,1.027,0.953,��,3.3,��
2016/12/15,11:20,1.074,1.796,1.172,2.030,1.388,0.562,1.027,0.953,���k��,4.0,��
2016/12/15,11:30,1.073,1.797,1.172,2.033,1.387,0.562,1.027,0.955,��,3.8,��
2016/12/15,11:40,1.073,1.795,1.175,2.033,1.389,0.562,1.027,0.955,��,8.1,��
2016/12/15,11:50,1.077,1.796,1.171,2.036,1.388,0.563,1.028,0.955,���쐼,5.7,��
2016/12/15,12:00,1.074,1.794,1.168,2.035,1.388,0.564,1.026,0.954,���쐼,7.1,��
2016/12/15,12:10,1.073,1.795,1.168,2.039,1.391,0.563,1.028,0.955,���쐼,6.7,��
2016/12/15,12:20,1.076,1.796,1.172,2.035,1.389,0.564,1.026,0.956,���쐼,7.3,��
2016/12/15,12:30,1.074,1.797,1.172,2.038,1.388,0.564,1.027,0.956,���쐼,8.5,��
2016/12/15,12:40,1.074,1.795,1.168,2.039,1.389,0.564,1.028,0.956,��,7.7,��
2016/12/15,12:50,1.076,1.797,1.171,2.039,1.389,0.562,1.028,0.956,��,8.4,��
2016/12/15,13:00,1.073,1.793,1.173,2.037,1.389,0.564,1.030,0.958,��,7.3,��
2016/12/15,13:10,1.073,1.793,1.175,2.038,1.395,0.565,1.028,0.955,��,6.9,��
2016/12/15,13:20,1.069,1.792,1.174,2.038,1.391,0.563,1.029,0.953,��,7.6,��
2016/12/15,13:30,1.072,1.792,1.173,2.038,1.388,0.564,1.029,0.954,���쐼,7.2,��
2016/12/15,13:40,1.068,1.792,1.175,2.043,1.390,0.566,1.030,0.955,���쐼,8.0,��
2016/12/15,13:50,1.071,1.796,1.176,2.041,1.390,0.565,1.029,0.954,���쐼,7.3,��
2016/12/15,14:00,1.072,1.799,1.178,2.040,1.389,0.566,1.028,0.957,��,6.2,��
2016/12/15,14:10,1.072,1.800,1.178,2.039,1.395,0.563,1.030,0.955,���쐼,5.3,��
2016/12/15,14:20,1.074,1.801,1.175,2.041,1.394,0.565,1.029,0.957,��,5.2,��
2016/12/15,14:30,1.072,1.799,1.176,2.040,1.395,0.566,1.031,0.957,��,6.9,��
2016/12/15,14:40,1.074,1.800,1.176,2.041,1.394,0.565,1.028,0.958,��,6.7,��
2016/12/15,14:50,1.074,1.801,1.175,2.042,1.396,0.566,1.030,0.957,��,8.9,��
2016/12/15,15:00,1.073,1.802,1.178,2.042,1.396,0.564,1.029,0.956,��,6.8,��
2016/12/15,15:10,1.072,1.802,1.178,2.041,1.396,0.565,1.030,0.955,��,6.0,��
2016/12/15,15:20,1.072,1.801,1.176,2.038,1.396,0.564,1.029,0.957,��,6.7,��
2016/12/15,15:30,1.073,1.802,1.177,2.041,1.396,0.566,1.028,0.957,��,7.4,��
2016/12/15,15:40,1.071,1.802,1.178,2.039,1.395,0.564,1.032,0.956,��,6.4,��
2016/12/15,15:50,1.073,1.803,1.177,2.043,1.395,0.564,1.029,0.955,��,6.6,��
2016/12/15,16:00,1.070,1.803,1.176,2.042,1.397,0.565,1.030,0.957,��,7.4,��
2016/12/15,16:10,1.071,1.804,1.178,2.041,1.396,0.565,1.027,0.958,��,7.1,��
2016/12/15,16:20,1.072,1.802,1.173,2.041,1.392,0.565,1.031,0.957,��,7.5,��
2016/12/15,16:30,1.073,1.803,1.178,2.040,1.395,0.565,1.029,0.956,��,7.8,��
2016/12/15,16:40,1.071,1.801,1.177,2.043,1.395,0.565,1.030,0.956,��,7.3,��
2016/12/15,16:50,1.070,1.800,1.177,2.043,1.396,0.565,1.029,0.957,���쐼,9.1,��
2016/12/15,17:00,1.071,1.802,1.175,2.041,1.393,0.563,1.030,0.956,���쐼,10.6,��
2016/12/15,17:10,1.070,1.803,1.175,2.043,1.391,0.564,1.029,0.957,��,9.1,��
2016/12/15,17:20,1.071,1.800,1.177,2.042,1.396,0.567,1.028,0.955,���쐼,8.5,��
2016/12/15,17:30,1.071,1.800,1.175,2.043,1.393,0.564,1.029,0.956,���쐼,7.6,��
2016/12/15,17:40,1.070,1.800,1.174,2.040,1.397,0.564,1.029,0.957,��,6.6,��
2016/12/15,17:50,1.068,1.804,1.175,2.040,1.394,0.564,1.028,0.956,���쐼,4.9,��
2016/12/15,18:00,1.069,1.802,1.172,2.045,1.393,0.565,1.027,0.956,��,3.7,��
2016/12/15,18:10,1.070,1.805,1.176,2.040,1.395,0.565,1.029,0.957,-,-,��
2016/12/15,18:20,1.068,1.802,1.175,2.041,1.394,0.567,1.030,0.958,-,-,-
2016/12/15,18:30,1.071,1.800,1.177,2.040,1.395,0.566,1.029,0.958,-,-,-
2016/12/15,18:40,1.069,1.802,1.175,2.042,1.394,0.566,1.027,0.957,-,-,-
2016/12/15,18:50,1.070,1.802,1.176,2.040,1.396,0.565,1.029,0.956,-,-,-
2016/12/15,19:00,1.068,1.803,1.174,2.043,1.393,0.565,1.029,0.958,-,-,-
2016/12/15,19:10,1.070,1.802,1.177,2.044,1.398,0.563,1.029,0.956,-,-,-
2016/12/15,19:20,1.071,1.804,1.174,2.041,1.398,0.566,1.030,0.957,-,-,-
2016/12/15,19:30,1.071,1.803,1.177,2.042,1.394,0.564,1.028,0.957,-,-,-
2016/12/15,19:40,1.069,1.802,1.175,2.043,1.396,0.563,1.029,0.956,-,-,-
2016/12/15,19:50,1.068,1.803,1.176,2.042,1.395,0.565,1.028,0.956,���쐼,6.4,-
2016/12/15,20:00,1.068,1.802,1.174,2.041,1.395,0.565,1.030,0.958,���쐼,7.1,��
2016/12/15,20:10,1.070,1.804,1.177,2.041,1.396,0.563,1.030,0.957,���쐼,7.2,��
2016/12/15,20:20,1.069,1.804,1.176,2.042,1.396,0.564,1.028,0.957,���쐼,6.6,��
2016/12/15,20:30,1.070,1.803,1.177,2.040,1.398,0.563,1.026,0.955,���쐼,5.9,��
2016/12/15,20:40,1.070,1.804,1.173,2.042,1.395,0.565,1.029,0.956,���쐼,5.8,��
2016/12/15,20:50,1.072,1.800,1.175,2.041,1.396,0.564,1.028,0.954,�쐼,5.6,��
2016/12/15,21:00,1.068,1.804,1.175,2.040,1.395,0.564,1.028,0.955,���쐼,6.0,��
2016/12/15,21:10,1.070,1.802,1.176,2.044,1.394,0.565,1.030,0.956,���쐼,6.1,��
2016/12/15,21:20,1.069,1.800,1.176,2.041,1.393,0.564,1.029,0.956,��,6.1,��
2016/12/15,21:30,1.070,1.799,1.175,2.042,1.393,0.564,1.027,0.955,��,5.4,��
2016/12/15,21:40,1.069,1.803,1.175,2.039,1.395,0.563,1.028,0.957,��,6.3,��
2016/12/15,21:50,1.069,1.799,1.175,2.046,1.397,0.564,1.030,0.955,��,7.1,��
2016/12/15,22:00,1.069,1.803,1.176,2.042,1.394,0.564,1.029,0.954,��,6.5,��
2016/12/15,22:10,1.068,1.799,1.175,2.041,1.391,0.565,1.029,0.956,��,6.9,��
2016/12/15,22:20,1.068,1.803,1.175,2.042,1.392,0.563,1.029,0.956,��,6.8,��
2016/12/15,22:30,1.068,1.802,1.176,2.041,1.394,0.563,1.028,0.956,��,6.6,��
2016/12/15,22:40,1.069,1.805,1.175,2.044,1.392,0.565,1.029,0.957,��,6.8,��
2016/12/15,22:50,1.069,1.799,1.176,2.044,1.393,0.564,1.031,0.956,���k��,8.3,��
2016/12/15,23:00,1.072,1.803,1.175,2.043,1.393,0.564,1.029,0.958,���k��,8.9,��
2016/12/15,23:10,1.068,1.802,1.176,2.044,1.394,0.565,1.029,0.957,���k��,9.0,��
2016/12/15,23:20,1.070,1.802,1.173,2.043,1.394,0.565,1.030,0.956,��,8.5,��
2016/12/15,23:30,1.068,1.804,1.175,2.045,1.392,0.564,1.030,0.956,���k��,7.7,��
2016/12/15,23:40,1.069,1.803,1.176,2.046,1.395,0.566,1.029,0.956,���k��,7.5,��
2016/12/15,23:50,1.068,1.803,1.175,2.044,1.394,0.564,1.031,0.956,���k��,7.1,��
